Weather 🌤️

Recent data

Temperatures

Wind

Pressure

Humidity & Precipitation

Last data
obsTime qcStatus tempAvg heatindexAvg windspeedAvg windgustAvg winddirAvg pressureAvg humidityAvg precipRate precipTotal
2026-09-03 23:34:53 0 24.8 24.5 2.8 6.1 229 1002.2 47 0 0
2026-09-03 23:29:52 0 24.8 24.6 2.6 6.1 223 1002.2 47 0 0
2026-09-03 23:24:52 0 24.9 24.7 3.6 6.1 233 1002.37 47 0 0
2026-09-03 23:19:52 0 25 24.8 2.6 6.1 235 1002.2 47 0 0
2026-09-03 23:14:52 0 25.1 24.9 1.7 6.1 228 1002.2 47 0 0
2026-09-03 23:09:51 0 25.1 24.9 3.5 6.1 228 1002.2 46.6 0 0
2026-09-03 23:04:55 0 25.2 24.9 3.4 6.1 224 1002.2 46 0 0
2026-09-03 22:59:52 0 25.3 25 3 6.1 226 1002.2 46 0 0
2026-09-03 22:54:52 0 25.3 25.1 2.5 6.1 232 1002.2 46 0 0
2026-09-03 22:49:52 0 25.3 25.1 3.6 6.1 231 1002.2 46 0 0
2026-09-03 22:44:54 0 25.5 25.3 3 6.1 231 1002.2 46 0 0
2026-09-03 22:39:53 0 25.6 25.4 1.8 6.1 219 1002.2 46 0 0

Hourly data

Temperatures

Wind

Pressure

Humidity & Precipitation

Last data
obsTime qcStatus tempAvg heatindexAvg windspeedAvg windgustAvg winddirAvg pressureAvg humidityAvg precipRate precipTotal
2026-09-03 22:59:52 0 25.7 25.5 3.1 6.6 227 1002.2 45.7 0 0
2026-09-03 21:59:52 0 26.6 26.5 3.1 5.8 228 1002.03 44.2 0 0
2026-09-03 20:59:52 0 27.8 27.6 1 4.7 225 1001.36 41.7 0 0
2026-09-03 19:59:53 1 28.5 28.1 1.8 6.7 240 1001.36 40.2 0 0
2026-09-03 18:59:51 1 28.7 28.3 2.9 9.9 238 1001.53 40.4 0 0
2026-09-03 17:59:51 1 28.3 28.1 3.2 9.3 223 1001.69 41.7 0 0
2026-09-03 16:59:52 1 27.8 27.7 3.4 9.7 249 1001.86 43.4 0 0
2026-09-03 15:59:51 1 27.1 27.2 3 11.3 215 1002.2 44.4 0 0
2026-09-03 14:59:51 1 26.4 26.4 3.5 8 243 1002.71 45.6 0 0
2026-09-03 13:59:55 1 25.6 25.4 3.3 8.9 217 1003.22 46.8 0 0
2026-09-03 12:59:53 1 24.7 24.5 3 7.9 219 1003.72 48.9 0 0
2026-09-03 11:59:52 1 23.5 23.3 2.4 6.2 184 1004.07 51.5 0 0
2026-09-03 10:59:55 1 20.8 20.7 1.6 4.5 181 1004.23 55.9 0 0
2026-09-03 09:59:54 1 19.3 19.3 1 3.6 183 1004.23 57.9 0 0
2026-09-03 08:59:52 0 18.6 18.6 0.5 2.6 187 1004.07 58.3 0 0
2026-09-03 07:59:52 0 18.3 18.3 0.1 2 183 1003.56 58 0 0
2026-09-03 06:59:53 0 18.7 18.7 0.2 2.3 151 1003.05 56.3 0 0
2026-09-03 05:59:52 0 19.6 19.6 0.5 3 167 1002.88 54.1 0 0
2026-09-03 04:59:52 0 20.7 20.7 0.6 3.8 229 1002.71 52.3 0 0
2026-09-03 03:59:52 0 21.4 20.9 0.1 3 204 1002.71 50.3 0 0
2026-09-03 02:59:52 0 22.1 21.6 0.4 4 220 1002.71 48.4 0 0
2026-09-03 01:59:52 0 22.6 22.1 0.5 6.5 218 1002.54 46.7 0 0
2026-09-03 00:59:54 0 23.1 22.6 4.4 7.8 224 1002.54 44.7 0 0
2026-09-02 23:59:52 0 23.9 23.4 4.9 8 229 1002.03 42.9 0 0